This is the latest recevied weather packets stored in our database for station/object KB9HUO. If no packets are shown the sender has not sent any weather packets the latest 10 day(s).
| Time | Temp. | Humidity | Pressure | Rain* | Wind** | Luminosity | Snow |
|---|---|---|---|---|---|---|---|
| 1788544725 | 36.11° C | 53% | 1017.3 hPa | 0 mm | - | 693 W/m² | - |
| 1788544425 | 36.11° C | 52% | 1017.3 hPa | 0 mm | - | 675 W/m² | - |
| 1788544124 | 36.67° C | 50% | 1017.3 hPa | 0 mm | - | 682 W/m² | - |
| 1788543815 | 36.67° C | 51% | 1017.3 hPa | 0 mm | - | 682 W/m² | - |
| 1788543511 | 36.67° C | 50% | 1017.3 hPa | 0 mm | - | 150 W/m² | - |
| 1788543206 | 36.67° C | 51% | 1017.5 hPa | 0 mm | - | 673 W/m² | - |
| 1788542902 | 36.67° C | 50% | 1017.4 hPa | 0 mm | - | 672 W/m² | - |
| 1788542601 | 36.67° C | 53% | 1017.5 hPa | 0 mm | - | 670 W/m² | - |
| 1788542296 | 36.67° C | 51% | 1017.6 hPa | 0 mm | - | 656 W/m² | - |
| 1788541992 | 36.11° C | 52% | 1017.6 hPa | 0 mm | - | 670 W/m² | - |
| 1788541688 | 36.11° C | 53% | 1017.4 hPa | 0 mm | - | 684 W/m² | - |
| 1788541383 | 36.11° C | 52% | 1017.6 hPa | 0 mm | - | 642 W/m² | - |
| 1788541083 | 36.11° C | 52% | 1017.6 hPa | 0 mm | - | 653 W/m² | - |
| 1788540782 | 36.11° C | 52% | 1017.5 hPa | 0 mm | - | 649 W/m² | - |
| 1788540477 | 36.11° C | 53% | 1017.7 hPa | 0 mm | - | 648 W/m² | - |
| 1788540172 | 36.11° C | 52% | 1017.7 hPa | 0 mm | - | 647 W/m² | - |
| 1788539868 | 35.56° C | 54% | 1017.6 hPa | 0 mm | - | 639 W/m² | - |
| 1788539563 | 35.56° C | 54% | 1017.4 hPa | 0 mm | - | 639 W/m² | - |
| 1788539262 | 35.56° C | 56% | 1017.6 hPa | 0 mm | - | 638 W/m² | - |
| 1788538958 | 35° C | 57% | 1017.7 hPa | 0 mm | - | 625 W/m² | - |
| 1788538653 | 35.56° C | 56% | 1017.6 hPa | 0 mm | - | 612 W/m² | - |
| 1788538353 | 35.56° C | 56% | 1017.8 hPa | 0 mm | - | 609 W/m² | - |
| 1788538048 | 35° C | 57% | 1017.7 hPa | 0 mm | - | 600 W/m² | - |
| 1788537744 | 35.56° C | 57% | 1017.8 hPa | 0 mm | - | 589 W/m² | - |
| 1788537444 | 35° C | 57% | 1017.6 hPa | 0 mm | - | 585 W/m² | - |
* Rain latest hour (hover to see other rain measurements)
** Current wind speed in m/s (hover to see current wind gust speed)